Location: Brunsen
(51.8651°N, 9.8610°E)
Time: 10:19:13
(UTC+00:00)

Meteor 1-24 Rocket - Pass Details

Date: 23 May 2024
Orbit: 788 x 927 km, 81.3° (Epoch: 18 June)

Event Time Altitude Azimuth Distance (km) Brightness Sun altitude
Exits shadow 02:02:47 - 187° (S) 2,988 6.0 -9.0°
Reaches altitude 10° 02:03:45 10° 187° (S) 2,625 5.8 -8.9°
Maximum altitude 02:09:47 83° 100° (E) 939 4.0 -8.3°
Drops below altitude 10° 02:15:48 10° 14° (NNE) 2,615 7.4 -7.7°
Sets 02:18:15 0° 14° (NNE) 3,546 8.2 -7.4°
